Hourly Weather Bolshoy Log

Today, 30 July, Friday

Time Temperature Precipitation Wind Pressure Humidity
00:00 +18°C° 0 mm 3 mps 734 mmHg 56%
01:00 +17°C° 0 mm 4 mps 734 mmHg 61%
02:00 +15°C° 0.7 mm 4 mps 734 mmHg 71%
03:00 +14°C° 0.7 mm 3 mps 734 mmHg 81%
04:00 +14°C° 0 mm 3 mps 734 mmHg 92%
05:00 +14°C° 0 mm 4 mps 733 mmHg 89%
06:00 +14°C° 0 mm 4 mps 733 mmHg 87%
07:00 +14°C° 0 mm 5 mps 732 mmHg 85%
08:00 +16°C° 0.1 mm 5 mps 732 mmHg 80%
09:00 +17°C° 0.1 mm 5 mps 732 mmHg 75%
10:00 +20°C° 0.1 mm 6 mps 731 mmHg 71%
11:00 +20°C° 0.2 mm 5 mps 731 mmHg 74%
12:00 +21°C° 0.2 mm 4 mps 731 mmHg 77%
13:00 +21°C° 0.2 mm 3 mps 731 mmHg 80%
14:00 +22°C° 0.4 mm 3 mps 731 mmHg 78%
15:00 +23°C° 0.4 mm 4 mps 731 mmHg 76%
16:00 +23°C° 0.4 mm 4 mps 731 mmHg 75%
17:00 +23°C° 0.2 mm 4 mps 732 mmHg 77%
18:00 +22°C° 0.2 mm 3 mps 732 mmHg 79%
19:00 +21°C° 0.2 mm 2 mps 732 mmHg 81%
20:00 +20°C° 0 mm 2 mps 732 mmHg 82%
21:00 +19°C° 0 mm 2 mps 732 mmHg 84%
22:00 +20°C° 0 mm 1 mps 733 mmHg 85%
23:00 +19°C° 0 mm 1 mps 733 mmHg 87%

Tomorrow, 31 July, Saturday

Time Temperature Precipitation Wind Pressure Humidity
00:00 +19°C° 0 mm 1 mps 733 mmHg 88%
01:00 +18°C° 0 mm 1 mps 733 mmHg 90%
02:00 +18°C° 0 mm 1 mps 733 mmHg 90%
03:00 +16°C° 0 mm 1 mps 733 mmHg 91%
04:00 +16°C° 0 mm 1 mps 733 mmHg 92%
05:00 +17°C° 0 mm 2 mps 733 mmHg 89%
06:00 +18°C° 0 mm 2 mps 734 mmHg 87%
07:00 +20°C° 0 mm 3 mps 734 mmHg 84%
08:00 +22°C° 0 mm 3 mps 734 mmHg 74%
09:00 +25°C° 0 mm 4 mps 734 mmHg 65%
10:00 +27°C° 0 mm 5 mps 734 mmHg 55%
11:00 +27°C° 0 mm 5 mps 733 mmHg 55%
12:00 +27°C° 0 mm 5 mps 733 mmHg 54%
13:00 +28°C° 0 mm 6 mps 733 mmHg 53%
14:00 +27°C° 0.1 mm 5 mps 732 mmHg 56%
15:00 +27°C° 0.1 mm 3 mps 732 mmHg 58%
16:00 +27°C° 0.1 mm 2 mps 732 mmHg 61%
17:00 +26°C° 0.1 mm 2 mps 732 mmHg 65%
18:00 +26°C° 0.1 mm 2 mps 732 mmHg 69%
19:00 +25°C° 0.1 mm 1 mps 732 mmHg 73%
20:00 +24°C° 0 mm 1 mps 732 mmHg 76%
21:00 +23°C° 0 mm 1 mps 732 mmHg 79%
22:00 +22°C° 0 mm 1 mps 732 mmHg 82%
23:00 +21°C° 0.5 mm 1 mps 732 mmHg 85%

Day after tomorrow, 1 August, Sunday

Time Temperature Precipitation Wind Pressure Humidity
00:00 +20°C° 0.5 mm 1 mps 733 mmHg 89%
01:00 +20°C° 0.5 mm 1 mps 733 mmHg 93%
02:00 +18°C° 0.3 mm 2 mps 733 mmHg 94%
03:00 +18°C° 0.3 mm 2 mps 733 mmHg 95%
04:00 +17°C° 0.3 mm 2 mps 734 mmHg 97%
05:00 +18°C° 0 mm 2 mps 734 mmHg 95%
06:00 +19°C° 0 mm 3 mps 734 mmHg 92%
07:00 +19°C° 0 mm 3 mps 735 mmHg 90%
08:00 +21°C° 0 mm 4 mps 735 mmHg 77%
09:00 +23°C° 0 mm 4 mps 735 mmHg 64%
10:00 +26°C° 0 mm 5 mps 735 mmHg 50%
11:00 +27°C° 0 mm 5 mps 735 mmHg 46%
12:00 +27°C° 0 mm 5 mps 735 mmHg 42%
13:00 +28°C° 0 mm 5 mps 735 mmHg 38%
14:00 +29°C° 0 mm 5 mps 735 mmHg 37%
15:00 +29°C° 0 mm 5 mps 735 mmHg 35%
16:00 +29°C° 0 mm 5 mps 735 mmHg 34%
17:00 +28°C° 0 mm 5 mps 735 mmHg 41%
18:00 +26°C° 0 mm 4 mps 736 mmHg 48%
19:00 +24°C° 0 mm 3 mps 736 mmHg 55%
20:00 +23°C° 0 mm 2 mps 736 mmHg 58%
21:00 +20°C° 0 mm 2 mps 736 mmHg 61%
22:00 +18°C° 0 mm 2 mps 737 mmHg 64%
23:00 +19°C° 0 mm 1 mps 737 mmHg 67%

2 August, Monday

Time Temperature Precipitation Wind Pressure Humidity
00:00 +18°C° 0 mm 1 mps 737 mmHg 70%
01:00 +18°C° 0 mm 1 mps 737 mmHg 73%
02:00 +16°C° 0 mm 1 mps 737 mmHg 75%
03:00 +16°C° 0 mm 1 mps 737 mmHg 78%
04:00 +15°C° 0 mm 1 mps 738 mmHg 80%
05:00 +18°C° 0 mm 1 mps 738 mmHg 76%
06:00 +19°C° 0 mm 1 mps 738 mmHg 71%
07:00 +20°C° 0 mm 1 mps 739 mmHg 66%
08:00 +21°C° 0 mm 2 mps 739 mmHg 60%
09:00 +24°C° 0 mm 2 mps 739 mmHg 53%
10:00 +26°C° 0 mm 3 mps 739 mmHg 47%
11:00 +27°C° 0 mm 3 mps 739 mmHg 45%
12:00 +28°C° 0 mm 4 mps 739 mmHg 43%
13:00 +28°C° 0 mm 4 mps 739 mmHg 41%
14:00 +28°C° 0 mm 3 mps 739 mmHg 41%
15:00 +28°C° 0 mm 2 mps 739 mmHg 42%
16:00 +28°C° 0 mm 1 mps 739 mmHg 42%
17:00 +27°C° 0 mm 1 mps 739 mmHg 48%
18:00 +26°C° 0 mm 1 mps 738 mmHg 54%
19:00 +25°C° 0 mm 1 mps 738 mmHg 60%
20:00 +24°C° 0.1 mm 2 mps 738 mmHg 65%
21:00 +21°C° 0.1 mm 2 mps 738 mmHg 70%
22:00 +20°C° 0.1 mm 2 mps 737 mmHg 75%
23:00 +19°C° 0 mm 2 mps 738 mmHg 75%

3 August, Tuesday

Time Temperature Precipitation Wind Pressure Humidity
00:00 +19°C° 0 mm 2 mps 738 mmHg 76%
01:00 +19°C° 0 mm 2 mps 738 mmHg 77%
02:00 +18°C° 0 mm 2 mps 738 mmHg 78%
03:00 +18°C° 0 mm 2 mps 738 mmHg 79%
04:00 +17°C° 0 mm 2 mps 738 mmHg 79%
05:00 +19°C° 0 mm 2 mps 738 mmHg 75%
06:00 +20°C° 0 mm 2 mps 738 mmHg 71%
07:00 +21°C° 0 mm 2 mps 739 mmHg 67%
08:00 +24°C° 0 mm 3 mps 738 mmHg 57%
09:00 +27°C° 0 mm 3 mps 738 mmHg 48%
10:00 +30°C° 0 mm 4 mps 738 mmHg 38%
11:00 +32°C° 0 mm 4 mps 738 mmHg 34%
12:00 +34°C° 0 mm 4 mps 738 mmHg 31%
13:00 +36°C° 0 mm 4 mps 738 mmHg 27%
14:00 +36°C° 0 mm 3 mps 737 mmHg 26%
15:00 +37°C° 0 mm 3 mps 737 mmHg 26%
16:00 +37°C° 0 mm 3 mps 737 mmHg 25%
17:00 +35°C° 0 mm 3 mps 737 mmHg 32%
18:00 +31°C° 0 mm 2 mps 737 mmHg 38%
19:00 +28°C° 0 mm 2 mps 737 mmHg 45%
20:00 +27°C° 0 mm 2 mps 737 mmHg 46%
21:00 +27°C° 0 mm 2 mps 737 mmHg 46%
22:00 +26°C° 0 mm 1 mps 737 mmHg 47%
23:00 +25°C° 0 mm 2 mps 737 mmHg 50%

4 August, Wednesday

Time Temperature Precipitation Wind Pressure Humidity
00:00 +24°C° 0 mm 2 mps 737 mmHg 53%
01:00 +23°C° 0 mm 2 mps 737 mmHg 55%
02:00 +23°C° 0 mm 2 mps 737 mmHg 57%
03:00 +21°C° 0 mm 2 mps 737 mmHg 59%
04:00 +21°C° 0 mm 2 mps 737 mmHg 61%
05:00 +23°C° 0 mm 2 mps 737 mmHg 59%
06:00 +24°C° 0 mm 2 mps 738 mmHg 58%
07:00 +25°C° 0 mm 2 mps 738 mmHg 57%
08:00 +27°C° 0 mm 3 mps 738 mmHg 49%
09:00 +30°C° 0 mm 3 mps 738 mmHg 41%
10:00 +33°C° 0 mm 4 mps 738 mmHg 33%
11:00 +35°C° 0 mm 4 mps 738 mmHg 29%
12:00 +37°C° 0 mm 4 mps 737 mmHg 25%
13:00 +38°C° 0 mm 3 mps 737 mmHg 21%
14:00 +34°C° 0.3 mm 4 mps 737 mmHg 34%
15:00 +29°C° 0.3 mm 5 mps 737 mmHg 48%
16:00 +24°C° 0.3 mm 6 mps 737 mmHg 62%
17:00 +23°C° 0.1 mm 5 mps 737 mmHg 63%
18:00 +23°C° 0.1 mm 4 mps 738 mmHg 64%
19:00 +22°C° 0.1 mm 3 mps 738 mmHg 65%
20:00 +22°C° 0 mm 3 mps 738 mmHg 65%
21:00 +22°C° 0 mm 3 mps 738 mmHg 65%
22:00 +22°C° 0 mm 3 mps 738 mmHg 64%
23:00 +21°C° 0 mm 3 mps 738 mmHg 67%
Show more

We Need Your Consent

Meteoprog and our Service Providers may store and access personal data such as cookies, device identifiers or other similar technologies on your device and process such data to personalise content and ads, as well as provide social media features and to analyse the traffic.

  • Store and/or access information on your device

    Cookies, device identifiers or other information can be stored or accessed on your device for the purposes indicated above.

  • Personalised ads and content, ad and content measurement, audience insights, and products development

    Ads and content can be personalised based on a profile. More data can be added to better personalise ads and content. Ad and content performance can be measured. Insights about the audience who saw the ads and content can be derived. Such data can be used to develop or improve user’s experience, systems and software.

By clicking ‘I Agree’ you will allow the use of indicated cookies, device identifiers, web beacons or other similar technologies. Your settings can be changed in the browser on your device.

For certain purposes, legitimate interests may be relied on, rather than consent. You can read more about this in our Privacy and Cookie Policy.